• In Romania
  • List of Countries
  • For 7 days
  • Water Temperature
  • Satellite Maps
  • Weather Map
  • Weather Widgets
  • user-avatar
    Login

    Hourly Weather Epifan

    Today, 19 July, Thursday

    Time Temperature Precipitation Wind Pressure Humidity
    00:00 +19°C° 0 mm 4 mps 731 mmHg 97%
    01:00 +19°C° 0 mm 4 mps 731 mmHg 97%
    02:00 +19°C° 0 mm 4 mps 731 mmHg 97%
    03:00 +19°C° 0 mm 3 mps 731 mmHg 97%
    04:00 +19°C° 0.7 mm 3 mps 731 mmHg 97%
    05:00 +19°C° 0.7 mm 4 mps 731 mmHg 97%
    06:00 +19°C° 0.7 mm 4 mps 732 mmHg 96%
    07:00 +19°C° 1.2 mm 4 mps 732 mmHg 96%
    08:00 +19°C° 1.2 mm 4 mps 732 mmHg 96%
    09:00 +20°C° 0 mm 4 mps 732 mmHg 95%
    10:00 +20°C° 1.3 mm 4 mps 732 mmHg 94%
    11:00 +21°C° 1.3 mm 4 mps 732 mmHg 92%
    12:00 +21°C° 1.3 mm 4 mps 732 mmHg 91%
    13:00 +22°C° 1.4 mm 4 mps 732 mmHg 89%
    14:00 +22°C° 1.4 mm 4 mps 732 mmHg 88%
    15:00 +23°C° 1.4 mm 4 mps 732 mmHg 87%
    16:00 +23°C° 0.8 mm 4 mps 732 mmHg 87%
    17:00 +23°C° 0.8 mm 4 mps 732 mmHg 87%
    18:00 +24°C° 0.8 mm 3 mps 732 mmHg 86%
    19:00 +24°C° 0.5 mm 3 mps 732 mmHg 89%
    20:00 +23°C° 0.5 mm 2 mps 732 mmHg 91%
    21:00 +21°C° 0.5 mm 2 mps 732 mmHg 93%
    22:00 +20°C° 0.2 mm 2 mps 732 mmHg 94%
    23:00 +20°C° 0.2 mm 2 mps 732 mmHg 95%

    Tomorrow, 20 July, Friday

    Time Temperature Precipitation Wind Pressure Humidity
    00:00 +20°C° 0.2 mm 2 mps 732 mmHg 95%
    01:00 +19°C° 0 mm 2 mps 732 mmHg 96%
    02:00 +19°C° 0 mm 2 mps 733 mmHg 96%
    03:00 +19°C° 0 mm 2 mps 733 mmHg 97%
    04:00 +19°C° 0 mm 2 mps 733 mmHg 97%
    05:00 +19°C° 0 mm 2 mps 733 mmHg 97%
    06:00 +19°C° 0 mm 2 mps 733 mmHg 97%
    07:00 +20°C° 0 mm 2 mps 733 mmHg 94%
    08:00 +21°C° 0 mm 3 mps 734 mmHg 91%
    09:00 +22°C° 0 mm 3 mps 734 mmHg 88%
    10:00 +24°C° 0.2 mm 3 mps 734 mmHg 85%
    11:00 +25°C° 0.2 mm 3 mps 734 mmHg 83%
    12:00 +26°C° 0.2 mm 2 mps 734 mmHg 80%
    13:00 +26°C° 1.4 mm 3 mps 734 mmHg 78%
    14:00 +27°C° 1.4 mm 3 mps 734 mmHg 76%
    15:00 +27°C° 1.4 mm 3 mps 734 mmHg 74%
    16:00 +27°C° 0.6 mm 3 mps 734 mmHg 76%
    17:00 +27°C° 0.6 mm 2 mps 734 mmHg 78%
    18:00 +27°C° 0.6 mm 2 mps 734 mmHg 80%
    19:00 +26°C° 0.2 mm 2 mps 734 mmHg 84%
    20:00 +24°C° 0.2 mm 2 mps 735 mmHg 87%
    21:00 +23°C° 0.2 mm 2 mps 735 mmHg 90%
    22:00 +21°C° 0 mm 2 mps 735 mmHg 91%
    23:00 +21°C° 0 mm 2 mps 735 mmHg 92%

    Day after tomorrow, 21 July, Saturday

    Time Temperature Precipitation Wind Pressure Humidity
    00:00 +20°C° 0 mm 2 mps 735 mmHg 93%
    01:00 +20°C° 0 mm 2 mps 735 mmHg 93%
    02:00 +20°C° 0 mm 2 mps 735 mmHg 94%
    03:00 +20°C° 0 mm 2 mps 735 mmHg 94%
    04:00 +20°C° 0.6 mm 2 mps 735 mmHg 94%
    05:00 +20°C° 0.6 mm 2 mps 735 mmHg 95%
    06:00 +20°C° 0.6 mm 2 mps 736 mmHg 95%
    07:00 +21°C° 0.1 mm 2 mps 736 mmHg 91%
    08:00 +24°C° 0.1 mm 3 mps 736 mmHg 88%
    09:00 +25°C° 0.1 mm 3 mps 736 mmHg 84%
    10:00 +26°C° 0.7 mm 3 mps 736 mmHg 80%
    11:00 +27°C° 0.7 mm 3 mps 736 mmHg 76%
    12:00 +28°C° 0.7 mm 3 mps 736 mmHg 73%
    13:00 +28°C° 1.1 mm 3 mps 736 mmHg 72%
    14:00 +28°C° 1.1 mm 3 mps 736 mmHg 72%
    15:00 +28°C° 1.1 mm 3 mps 736 mmHg 71%
    16:00 +28°C° 0.6 mm 3 mps 735 mmHg 74%
    17:00 +27°C° 0.6 mm 3 mps 735 mmHg 77%
    18:00 +27°C° 0.6 mm 2 mps 735 mmHg 79%
    19:00 +26°C° 0.3 mm 2 mps 735 mmHg 83%
    20:00 +24°C° 0.3 mm 2 mps 736 mmHg 87%
    21:00 +23°C° 0.3 mm 2 mps 736 mmHg 90%
    22:00 +23°C° 0.1 mm 2 mps 736 mmHg 92%
    23:00 +21°C° 0.1 mm 2 mps 735 mmHg 93%

    22 July, Sunday

    Time Temperature Precipitation Wind Pressure Humidity
    00:00 +21°C° 0.1 mm 2 mps 735 mmHg 94%
    01:00 +20°C° 0 mm 2 mps 735 mmHg 94%
    02:00 +20°C° 0 mm 2 mps 735 mmHg 95%
    03:00 +20°C° 0 mm 2 mps 735 mmHg 95%
    04:00 +20°C° 0.1 mm 2 mps 735 mmHg 95%
    05:00 +20°C° 0.1 mm 2 mps 736 mmHg 95%
    06:00 +20°C° 0.1 mm 3 mps 736 mmHg 95%
    07:00 +21°C° 0.1 mm 3 mps 736 mmHg 92%
    08:00 +24°C° 0.1 mm 3 mps 736 mmHg 89%
    09:00 +25°C° 0.1 mm 3 mps 736 mmHg 85%
    10:00 +26°C° 0.5 mm 3 mps 736 mmHg 81%
    11:00 +27°C° 0.5 mm 3 mps 735 mmHg 77%
    12:00 +28°C° 0.5 mm 3 mps 735 mmHg 73%
    13:00 +28°C° 0.7 mm 3 mps 735 mmHg 72%
    14:00 +29°C° 0.7 mm 3 mps 735 mmHg 71%
    15:00 +29°C° 0.7 mm 3 mps 735 mmHg 69%
    16:00 +29°C° 0.5 mm 3 mps 735 mmHg 72%
    17:00 +28°C° 0.5 mm 2 mps 735 mmHg 75%
    18:00 +28°C° 0.5 mm 2 mps 735 mmHg 79%
    19:00 +27°C° 0.4 mm 2 mps 735 mmHg 82%
    20:00 +25°C° 0.4 mm 3 mps 735 mmHg 86%
    21:00 +24°C° 0.4 mm 3 mps 735 mmHg 90%
    22:00 +22°C° 0.1 mm 3 mps 735 mmHg 91%
    23:00 +22°C° 0.1 mm 3 mps 735 mmHg 93%

    23 July, Monday

    Time Temperature Precipitation Wind Pressure Humidity
    00:00 +21°C° 0.1 mm 2 mps 735 mmHg 94%
    01:00 +21°C° 0.1 mm 2 mps 735 mmHg 95%
    02:00 +21°C° 0.1 mm 2 mps 735 mmHg 95%
    03:00 +20°C° 0.1 mm 2 mps 735 mmHg 96%
    04:00 +21°C° 0.1 mm 2 mps 735 mmHg 96%
    05:00 +21°C° 0.1 mm 2 mps 735 mmHg 96%
    06:00 +21°C° 0.1 mm 3 mps 735 mmHg 96%
    07:00 +22°C° 0.2 mm 3 mps 736 mmHg 94%
    08:00 +24°C° 0.2 mm 3 mps 736 mmHg 92%
    09:00 +25°C° 0.2 mm 3 mps 736 mmHg 90%
    10:00 +25°C° 0.5 mm 3 mps 736 mmHg 86%
    11:00 +26°C° 0.5 mm 3 mps 736 mmHg 83%
    12:00 +27°C° 0.5 mm 3 mps 736 mmHg 79%
    13:00 +27°C° 1 mm 3 mps 736 mmHg 78%
    14:00 +27°C° 1 mm 3 mps 736 mmHg 77%
    15:00 +27°C° 1 mm 3 mps 736 mmHg 76%
    16:00 +27°C° 1.1 mm 3 mps 736 mmHg 78%
    17:00 +27°C° 1.1 mm 2 mps 736 mmHg 81%
    18:00 +26°C° 1.1 mm 2 mps 736 mmHg 84%
    19:00 +25°C° 0.2 mm 2 mps 737 mmHg 87%
    20:00 +24°C° 0.2 mm 2 mps 737 mmHg 89%
    21:00 +23°C° 0.2 mm 2 mps 737 mmHg 92%
    22:00 +21°C° 0.2 mm 2 mps 737 mmHg 93%
    23:00 +21°C° 0.2 mm 2 mps 737 mmHg 94%

    24 July, Tuesday

    Time Temperature Precipitation Wind Pressure Humidity
    00:00 +20°C° 0.2 mm 2 mps 737 mmHg 95%
    01:00 +21°C° 0 mm 1 mps 737 mmHg 95%
    02:00 +21°C° 0 mm 1 mps 738 mmHg 95%
    03:00 +21°C° 0 mm 1 mps 738 mmHg 95%
    04:00 +21°C° 0 mm 1 mps 738 mmHg 95%
    05:00 +20°C° 0 mm 2 mps 738 mmHg 95%
    06:00 +20°C° 0 mm 2 mps 738 mmHg 95%
    07:00 +21°C° 0 mm 2 mps 739 mmHg 91%
    08:00 +24°C° 0 mm 2 mps 739 mmHg 87%
    09:00 +25°C° 0 mm 3 mps 739 mmHg 83%
    10:00 +26°C° 0 mm 3 mps 739 mmHg 78%
    11:00 +27°C° 0 mm 3 mps 739 mmHg 73%
    12:00 +28°C° 0 mm 3 mps 739 mmHg 69%
    13:00 +28°C° 0.5 mm 3 mps 739 mmHg 68%
    14:00 +29°C° 0.5 mm 2 mps 739 mmHg 67%
    15:00 +29°C° 0.5 mm 2 mps 739 mmHg 66%
    16:00 +28°C° 0.4 mm 3 mps 740 mmHg 70%
    17:00 +28°C° 0.4 mm 3 mps 740 mmHg 75%
    18:00 +27°C° 0.4 mm 3 mps 740 mmHg 79%
    19:00 +26°C° 0.3 mm 3 mps 740 mmHg 83%
    20:00 +25°C° 0.3 mm 3 mps 740 mmHg 88%
    21:00 +22°C° 0.3 mm 3 mps 740 mmHg 92%
    22:00 +22°C° 0.1 mm 3 mps 740 mmHg 93%
    23:00 +21°C° 0.1 mm 3 mps 741 mmHg 94%
    Show more